Camarillo, CA

5:24 AM PST on February 22, 2017 (GMT -0800)
Camarillo

Weather History for KCMA - April, 2014

Change the Weather History Date:

Tuesday, April 22, 2014

  Actual Average Record
Temperature  
Mean Temperature 62 °F 59 °F  
Max Temperature 70 °F 70 °F 86 °F (1997)
Min Temperature 53 °F 48 °F 37 °F (1970)
Degree Days  
Heating Degree Days 3 7  
Month to date heating degree days 118 159  
Since 1 July heating degree days 1222 1772  
Cooling Degree Days 0 0  
Month to date cooling degree days 2 0  
Year to date cooling degree days 42 13  
Growing Degree Days 11 (Base 50)    
Moisture  
Dew Point 50 °F    
Average Humidity 67    
Maximum Humidity 86    
Minimum Humidity 47    
Precipitation  
Precipitation 0.00 in 0.03 in 0.25 in (1967)
Month to date precipitation 0.05 0.53  
Year to date precipitation 4.18 10.36  
Since 1 July precipitation 5.00  
Sea Level Pressure  
Sea Level Pressure 29.96 in    
Wind  
Wind Speed 4 mph (SSW)    
Max Wind Speed 14 mph    
Max Gust Speed 28 mph    
Visibility 8 miles    
Events      
T = Trace of Precipitation, MM = Missing Value Source: NWS Daily Summary

Daily Weather History Graph

Daily Weather History Graph

Search for Another Location

Airport or City:

Trip Planner

Search our weather history database for the weather conditions in past years. The results will help you decide how hot, cold, wet, or windy it might be!

Date:

Astronomy

Apr. 22, 2014 Rise Set
Actual Time 6:16 AM PDT 7:33 PM PDT
Civil Twilight 5:50 AM PDT 7:59 PM PDT
Nautical Twilight 5:19 AM PDT 8:31 PM PDT
Astronomical Twilight 4:46 AM PDT 9:03 PM PDT
Moon 1:50 AM PDT 12:58 PM PDT
Length of Visible Light 14h 09m
Length of Day
13h 16m
Last Quarter, 45% of the Moon is Illuminated
Apr 22
Last Quarter
Apr 28
New
May 6
First Quarter
May 14
Full
May 21
Last Quarter

Hourly Weather History & Observations

Time (PDT) Temp. Dew Point Humidity Pressure Visibility Wind Dir Wind Speed Gust Speed Precip Events Conditions
12:55 AM 57.0 °F 53.1 °F 87% 29.99 in 5.0 mi SSE 3.5 mph - N/A   Scattered Clouds
1:13 AM 57.2 °F 53.6 °F 88% 29.96 in 6.0 mi South 3.5 mph - N/A   Mostly Cloudy
1:41 AM 57.2 °F 53.6 °F 88% 29.96 in 6.0 mi Calm Calm - N/A   Scattered Clouds
1:55 AM 57.0 °F 53.1 °F 87% 29.98 in 6.0 mi Calm Calm - N/A   Clear
3:25 AM 55.4 °F 51.8 °F 88% 29.95 in 6.0 mi Calm Calm - N/A   Mostly Cloudy
3:55 AM 55.9 °F 51.1 °F 84% 29.97 in 8.0 mi West 4.6 mph - N/A   Mostly Cloudy
4:05 AM 55.4 °F 50.0 °F 82% 29.95 in 8.0 mi Calm Calm - N/A   Partly Cloudy
4:55 AM 55.0 °F 50.0 °F 83% 29.97 in 8.0 mi NNW 3.5 mph - N/A   Clear
5:41 AM 53.6 °F 50.0 °F 88% 29.95 in 7.0 mi Calm Calm - N/A   Mostly Cloudy
5:55 AM 55.9 °F 51.1 °F 84% 29.98 in 7.0 mi Calm Calm - N/A   Overcast
6:55 AM 57.9 °F 52.0 °F 81% 29.99 in 7.0 mi Calm Calm - N/A   Overcast
7:20 AM 57.2 °F 50.0 °F 77% 29.98 in 7.0 mi WSW 6.9 mph - N/A   Overcast
7:55 AM 57.0 °F 48.9 °F 74% 30.01 in 8.0 mi Calm Calm - N/A   Mostly Cloudy
8:03 AM 57.2 °F 50.0 °F 77% 29.98 in 8.0 mi SSW 3.5 mph - N/A   Mostly Cloudy
8:55 AM 59.0 °F 51.1 °F 75% 29.99 in 8.0 mi East 4.6 mph - N/A   Overcast
9:55 AM 61.0 °F 51.1 °F 70% 30.00 in 8.0 mi SW 4.6 mph - N/A   Overcast
10:55 AM 63.0 °F 50.0 °F 63% 30.00 in 9.0 mi SE 5.8 mph - N/A   Overcast
11:12 AM 64.4 °F 50.0 °F 59% 29.97 in 10.0 mi ESE 6.9 mph - N/A   Scattered Clouds
11:55 AM 66.9 °F 48.9 °F 52% 29.99 in 10.0 mi Variable 3.5 mph - N/A   Partly Cloudy
12:55 PM 69.1 °F 51.1 °F 53% 29.96 in 10.0 mi South 6.9 mph - N/A   Partly Cloudy
1:55 PM 68.0 °F 50.0 °F 52% 29.95 in 10.0 mi South 10.4 mph - N/A   Clear
2:55 PM 69.1 °F 48.0 °F 47% 29.95 in 10.0 mi SSW 8.1 mph - N/A   Clear
3:55 PM 69.1 °F 48.9 °F 49% 29.92 in 10.0 mi SSW 8.1 mph - N/A   Clear
4:55 PM 66.0 °F 48.0 °F 52% 29.92 in 10.0 mi SW 11.5 mph - N/A   Clear
5:55 PM 63.0 °F 48.0 °F 58% 29.92 in 10.0 mi SW 9.2 mph - N/A   Clear
6:55 PM 62.1 °F 48.0 °F 60% 29.91 in 9.0 mi Variable 3.5 mph - N/A   Clear
7:55 PM 59.0 °F 48.0 °F 67% 29.91 in 10.0 mi East 6.9 mph - N/A   Clear
8:55 PM 59.0 °F 46.9 °F 64% 29.92 in 10.0 mi ENE 5.8 mph - N/A   Clear
9:55 PM 57.9 °F 46.9 °F 67% 29.94 in 10.0 mi NW 3.5 mph - N/A   Clear
10:55 PM 55.9 °F 48.0 °F 75% 29.95 in 10.0 mi West 3.5 mph - N/A   Clear
11:55 PM 55.9 °F 46.9 °F 72% 29.96 in 10.0 mi Calm Calm - N/A   Clear